Location: Newark
(33.6439°N, 114.9881°W)
Time: 08:49:43
(UTC+00:00)

Tiros 1 - Pass Details

Date: 22 July 2019
Orbit: 630 x 664 km, 48.4° (Epoch: 21 August)

Event Time Altitude Azimuth Distance (km) Brightness Sun altitude
Rises 19:26:04 0° 252° (WSW) 2,974 10.6 75.8°
Reaches altitude 10° 19:28:31 10° 259° (W) 2,068 9.9 76.0°
Maximum altitude 19:33:00 40° 329° (NNW) 982 8.5 76.2°
Drops below altitude 10° 19:37:32 10° 39° (NE) 2,082 9.8 76.4°
Sets 19:40:01 0° 47° (NE) 2,996 10.5 76.5°
